Regional Weather Roundup
Issued by NWS Albany, NY

Current Version | Previous Version | Graphics & Text | Print | Product List | Glossary Off
Versions: 1 2 3 4 5 6 7 8 9 10 11 12 13 14 15 16 17 18 19 20 21 22 23 24 25 26 27 28 29 30 31 32 33 34 35 36 37 38 39 40 41 42 43 44 45 46 47 48 49 50

667
ASUS41 KALY 171110
RWRALY

NEW YORK STATE HOURLY WEATHER ROUNDUP
NATIONAL WEATHER SERVICE ALBANY NY
700 AM EDT THU AUG 17 2017

NOTE: "FAIR" INDICATES FEW OR NO CLOUDS BELOW 12,000 FEET WITH NO
SIGNIFICANT WEATHER AND/OR NO OBSTRUCTIONS TO VISIBILITY.

NYZ032-033-038>043-046>054-057>066-NYZ062>081-082-084-171200-
EAST


CITY           SKY/WX    TMP DP  RH WIND       PRES   REMARKS
ALBANY         MOCLDY    53  51  93 NE3       30.09S
GLENS FALLS    CLOUDY    48  47  96 CALM      30.09R
POUGHKEEPSIE   CLEAR     57  55  93 CALM      30.07R
NEWBURGH       PTCLDY    61  57  88 VRB5      30.10R
MONTGOMERY     MOCLDY    59  57  93 CALM      30.09R
WHITE PLAINS   MOCLDY    65  55  70 N3        30.07R
ISLIP          MOCLDY    68  62  81 NE5       30.05R
NEW YORK CITY  MOCLDY    71  57  61 NE8       30.05R
CENTRAL PARK   CLOUDY    71  55  56 VRB5      30.08R
$$

NYZ005>009-017-018-044>046-055-056-171200-
CENTRAL


CITY           SKY/WX    TMP DP  RH WIND       PRES   REMARKS
FULTON         PTCLDY    52  51  97 SE3       30.08R
SYRACUSE       MOCLDY    51  50  96 E3        30.07S
ROME           CLEAR     49  49 100 SE3       30.10S
ELMIRA         FOG       57  57 100 CALM      30.08R VSB 1/2
BINGHAMTON     PTCLDY    53  52  96 NE6       30.10R
MONTICELLO     MOCLDY    53  52  96 CALM      30.11R
$$

NYZ026>034-041>043-087-171200-
NORTH


CITY           SKY/WX    TMP DP  RH WIND       PRES   REMARKS
WATERTOWN      CLEAR     49  49 100 E3        30.07R
FORT DRUM      NOT AVBL
OGDENSBURG     FAIR      55  54  98 CALM      30.06S
MASSENA        PTCLDY    55  54  96 SW5       30.07R
SARANAC LAKE   CLOUDY    42  42 100 CALM      30.09R FOG
PLATTSBURGH    CLOUDY    54  49  83 SE3       30.03S
$$

NYZ001>004-010>016-019>021-085-171200-
WEST


CITY           SKY/WX    TMP DP  RH WIND       PRES   REMARKS
NIAGARA FALLS  CLEAR     61  56  83 E5        30.02S
BUFFALO        CLEAR     61  58  90 E5        30.03S
DUNKIRK          N/A     56  56 100 CALM      30.02R
JAMESTOWN      CLEAR     57  57 100 CALM      30.06S VSB 1/2
WELLSVILLE     PTCLDY    57  55  93 E6        30.10S FOG
ROCHESTER      MOCLDY    58  55  90 CALM      30.06S
PENN YAN       MOCLDY    57  54  89 S3        30.08S
$$

             KEY
       WCI = WIND CHILL INDEX
       VSB = VISIBILITY
       HX  = HEAT INDEX
$$




USA.gov is the U.S. government's official web portal to all federal, state and local government web resources and services.